Location: Cucq
(50.4773°N, 1.6202°E)
Time: 08:19:28
(UTC+00:00)

Cosmos 1300 Rocket - Pass Details

Date: 07 August 2020
Orbit: 603 x 625 km, 82.5° (Epoch: 26 September)

Event Time Altitude Azimuth Distance (km) Brightness Sun altitude
Exits shadow 00:57:48 57° 140° (SE) 714 3.6 -22.0°
Maximum altitude 00:58:24 65° 97° (E) 667 3.6 -21.9°
Drops below altitude 10° 01:02:41 10° 15° (NNE) 1,962 7.3 -21.8°
Sets 01:04:55 0° 13° (NNE) 2,870 8.5 -21.7°
